Pasco, WA
on Wednesday, February 13, 2013

Wednesday
Previous Day Next Day
Daily Summary
 ActualAverageRecord
Temperature
Mean Temperature °F 38°F  
Max Temperature 56°F 48°F 60°F (2011)
Min Temperature 32°F 28°F 12°F (1995)
Degree Days
Heating Degree Days 21 27  
Month to date heating degree days 337 357  
Since 1 July heating degree days 3248 3508  
Cooling Degree Days 0 0  
Month to date cooling degree days 0 0  
Year to date cooling degree days 0 0  
Moisture
Dew Point 36°F   
Average Humidity 63    
Maximum Humidity 76    
Minimum Humidity 50    
Precipitation
Precipitation 0.00 in in 0.41 in (1990)
Month to date precipitation T  
Year to date precipitation 0.36  
Snow
Snow 0.00 in in in ()
Snow Depth 0.00 in   
Wind
Wind Speed 13 mph   
Max Wind Speed 30 mph   
Max Gust Speed 37 mph   
Visibility 10 miles   
Events     

Key: T is trace of precipitation, MM is missing value
Source: NWS Daily Summary
Time(PST)TemperatureDew PointHumidity Pressure Visibility Wind DirectionWind SpeedGust SpeedPrecipitationEvents Conditions
12:53 AM 48.0°F 39.0°F 71% 30.26 in 10.0 miles SW 16.1 mph - N/A   Clear
1:53 AM 48.9°F 39.0°F 69% 30.25 in 10.0 miles WSW 9.2 mph - N/A   Clear
2:53 AM 48.9°F 37.9°F 66% 30.22 in 10.0 miles SW 28.8 mph 36.8 mph N/A   Clear
3:53 AM 48.9°F 37.9°F 66% 30.24 in 10.0 miles SW 20.7 mph - N/A   Clear
4:53 AM 48.9°F 37.9°F 66% 30.23 in 10.0 miles SW 19.6 mph 33.4 mph N/A   Clear
5:53 AM 48.9°F 37.9°F 66% 30.24 in 10.0 miles WSW 17.3 mph 28.8 mph N/A   Clear
6:53 AM 48.9°F 37.9°F 66% 30.25 in 10.0 miles WSW 24.2 mph 28.8 mph N/A   Clear
7:53 AM 48.0°F 37.9°F 68% 30.28 in 10.0 miles WSW 11.5 mph - N/A   Clear
8:53 AM 48.9°F 37.9°F 66% 30.29 in 10.0 miles WSW 8.1 mph - N/A   Clear
9:53 AM 50.0°F 37.9°F 63% 30.30 in 10.0 miles WSW 11.5 mph - N/A   Clear
10:53 AM 51.1°F 37.0°F 59% 30.30 in 10.0 miles SW 13.8 mph - N/A   Clear
11:53 AM 52.0°F 37.0°F 57% 30.30 in 10.0 miles SW 8.1 mph - N/A   Mostly Cloudy
12:53 PM 54.0°F 37.9°F 55% 30.28 in 10.0 miles WSW 9.2 mph - N/A   Clear
1:53 PM 54.0°F 37.0°F 53% 30.27 in 10.0 miles WSW 11.5 mph - N/A   Partly Cloudy
2:53 PM 55.0°F 37.0°F 51% 30.28 in 10.0 miles West 8.1 mph - N/A   Clear
3:53 PM 53.1°F 36.0°F 52% 30.30 in 10.0 miles NNW 8.1 mph - N/A   Overcast
4:53 PM 52.0°F 37.0°F 57% 30.30 in 10.0 miles North 3.5 mph - N/A   Overcast
5:53 PM 48.9°F 35.1°F 59% 30.31 in 10.0 miles Calm Calm - N/A   Clear
6:53 PM 45.0°F 32.0°F 60% 30.34 in 10.0 miles NW 5.8 mph - N/A   Clear
7:53 PM 41.0°F 28.9°F 62% 30.35 in 10.0 miles WSW 8.1 mph - N/A   Clear
8:53 PM 37.9°F 30.0°F 73% 30.37 in 10.0 miles NW 6.9 mph - N/A   Clear
9:53 PM 41.0°F 30.0°F 65% 30.39 in 10.0 miles Calm Calm - N/A   Clear
10:53 PM 37.9°F 30.0°F 73% 30.40 in 10.0 miles Calm Calm - N/A   Clear
11:53 PM 34.0°F 28.0°F 79% 30.43 in 10.0 miles SE 5.8 mph - N/A   Clear
Moon Phase
Feb. 13 Feb. 17 Feb. 25 Mar. 04 Mar. 11
Sunrise:07:02 AM (PST) Moon Rise:08:18 AM (PST)2/13
Sunset:05:19 PM (PST) Moon Set:09:45 PM (PST)2/13

Copyright © 2014 The Weather Underground, Inc.